Theta_e
304 304 304 305 306 308 308 307 308 308 308 309 309 310 312 312 312 311 311 313 317 319 321 323 324 325 326 327 327 327 324 324 326 327 327 327 322 317 318 319 320 323 327 325 318 317 321 322 322 322 322 323 325 326 328 328 326 323 328 332 331 332 331 331 335 329 328 329 323 320 320 324 327 325 325 326 327 327 325 326 327 327 327 328 329 330 328 327
303 304 305 305 305 307 309 308 308 308 308 309 309 309 311 312 312 312 311 312 315 318 320 322 323 324 325 326 327 327 325 323 325 327 326 325 322 319 319 321 322 324 327 325 320 319 321 323 322 322 323 324 326 327 329 329 326 325 330 332 330 332 328 327 329 324 322 322 321 320 320 324 326 325 326 327 328 327 329 331 329 328 327 328 328 330 330 328
303 303 305 306 306 307 308 308 308 308 308 309 309 309 310 312 312 311 311 311 313 317 319 320 322 323 325 326 327 328 326 323 324 326 325 325 323 320 320 323 323 324 326 325 322 320 321 322 322 322 323 325 326 327 329 329 328 326 327 330 330 329 326 325 326 325 323 320 319 320 320 323 324 325 326 327 327 326 331 333 331 330 328 329 328 330 330 329
303 303 305 307 307 307 308 308 309 309 309 309 309 309 309 311 312 311 310 310 312 315 318 319 320 322 324 325 326 327 326 324 325 324 323 324 324 321 322 324 323 324 326 326 323 322 322 322 322 322 324 325 325 327 327 327 329 327 326 330 329 325 325 327 327 325 323 319 319 320 321 322 323 326 325 325 327 327 327 328 329 328 326 327 328 330 330 328
303 303 304 306 307 308 308 308 309 309 310 309 309 309 309 310 311 311 310 310 311 313 316 318 319 320 323 324 326 327 327 327 326 324 321 322 323 322 322 326 325 324 326 326 323 322 322 322 322 322 324 324 325 327 326 326 328 326 326 327 326 324 326 327 325 322 319 319 321 321 321 323 323 324 324 324 329 328 325 325 326 324 323 324 326 329 330 328
303 302 303 306 308 308 308 308 309 309 310 310 308 308 308 309 311 310 310 311 311 312 316 318 318 318 321 323 325 326 327 327 326 324 323 321 321 321 322 326 327 325 327 326 323 322 323 322 323 323 323 324 325 327 327 326 326 327 328 325 325 325 325 326 324 320 319 319 321 321 321 322 323 323 323 324 326 326 324 326 325 324 323 322 323 326 328 327
304 302 302 306 308 308 308 309 309 310 310 310 308 308 308 308 310 310 310 311 311 312 315 318 318 317 319 322 325 326 326 326 324 323 323 321 320 319 321 327 328 327 328 328 323 321 323 323 323 323 324 325 325 326 327 326 325 327 330 326 325 325 324 328 326 322 322 321 320 319 319 321 323 324 323 322 324 323 323 324 325 325 324 323 323 324 325 324
304 303 302 305 308 308 308 309 309 309 310 309 309 308 308 308 309 310 310 311 311 312 315 318 318 316 318 322 324 324 325 325 325 323 323 321 319 318 321 327 329 328 328 329 324 321 322 323 323 323 324 325 325 324 325 327 326 326 329 327 326 326 325 328 328 326 323 321 320 318 317 320 323 322 321 322 323 323 323 323 324 325 325 324 324 323 323 323
304 304 303 304 307 308 308 308 308 309 309 309 309 308 308 308 309 310 310 311 311 312 315 318 318 316 317 322 324 323 325 325 325 325 324 322 320 318 320 326 330 329 328 328 325 321 322 322 323 324 324 325 325 324 324 327 328 326 326 327 327 327 327 327 325 324 321 319 319 318 317 318 320 319 319 322 323 323 323 323 323 324 326 325 324 323 323 322
305 304 304 304 306 307 307 307 308 308 309 308 309 309 308 307 308 310 310 310 312 312 314 317 318 316 317 321 323 324 325 325 325 325 325 324 320 319 321 324 328 329 328 327 325 321 321 322 323 324 325 326 325 325 325 327 329 327 326 326 326 327 328 326 322 320 318 317 317 318 319 317 317 317 318 321 322 322 322 323 323 323 325 325 325 325 323 322
305 304 304 304 305 306 306 306 307 308 308 308 309 309 309 308 308 310 310 310 311 312 314 317 317 317 318 321 322 324 324 325 325 326 325 324 322 320 322 325 328 330 328 326 326 322 321 322 323 324 326 327 327 327 326 327 327 327 327 326 326 326 327 324 318 317 317 317 318 317 317 316 316 317 317 319 320 320 321 322 323 323 324 325 325 325 324 323
306 304 304 304 305 305 306 306 307 307 307 308 309 309 309 309 308 309 310 310 311 312 313 315 317 317 318 320 321 322 324 324 325 326 325 324 323 320 322 326 328 329 328 326 326 323 320 322 322 324 326 327 329 329 328 326 327 328 328 328 328 326 327 324 318 316 317 318 318 316 318 318 317 317 318 318 319 318 319 321 323 323 324 325 326 326 325 324
305 304 304 305 305 305 306 307 307 307 307 308 309 309 309 310 309 310 310 310 311 312 313 315 316 316 317 319 320 320 322 324 324 325 325 324 323 323 323 325 327 329 329 327 327 324 321 321 322 323 326 327 329 330 328 326 326 328 328 328 330 329 328 326 320 316 316 318 318 319 324 325 320 318 318 319 320 318 318 320 322 323 324 324 325 326 326 325
305 304 304 305 306 306 306 307 307 307 307 307 308 309 309 310 310 310 310 311 311 312 313 314 315 315 317 318 319 319 321 323 323 324 325 324 322 323 324 325 326 326 326 325 325 323 321 321 321 323 326 327 327 328 329 330 328 327 329 329 331 332 331 327 319 315 317 317 316 320 325 327 325 322 320 319 318 318 318 318 320 322 323 324 325 325 326 325
304 303 304 305 306 306 306 307 308 307 307 307 307 308 309 310 310 309 310 311 312 312 313 314 314 315 316 317 317 318 319 321 323 323 324 323 322 322 323 324 324 324 323 322 322 321 321 320 321 323 325 325 326 329 333 334 331 328 331 333 331 332 333 329 318 314 319 318 314 320 324 324 324 322 322 323 319 317 317 317 318 320 321 323 324 325 325 325
304 303 304 305 307 306 306 307 307 307 307 307 307 308 309 310 310 310 310 311 312 313 313 314 314 314 316 317 316 317 317 318 321 322 323 323 323 321 322 323 323 323 322 321 321 321 321 321 322 323 324 324 326 330 332 333 333 331 330 333 333 331 331 331 321 314 318 318 313 317 322 325 325 320 320 322 320 317 317 317 317 318 320 322 323 324 325 325
304 303 304 305 306 306 307 307 307 307 307 307 308 308 309 309 310 310 311 312 312 314 313 313 313 314 316 316 317 318 318 318 319 321 322 322 322 320 321 323 322 322 321 320 321 321 322 322 323 324 324 327 327 328 331 332 334 333 330 331 331 330 329 330 326 317 315 318 316 316 319 324 327 322 319 320 319 317 315 316 317 317 319 320 322 323 323 324
304 303 304 305 306 307 307 307 307 307 307 307 308 309 309 310 310 310 311 313 313 314 313 313 314 314 315 315 316 318 318 319 319 320 322 322 321 321 320 322 321 321 321 321 321 320 322 322 322 325 326 328 327 327 331 332 332 332 331 331 329 328 328 329 330 322 316 319 319 317 316 318 321 321 320 320 319 317 316 316 316 317 318 319 321 322 323 323
304 303 304 306 307 307 307 307 307 307 307 307 308 309 310 310 311 311 312 313 313 313 313 314 314 313 314 313 314 318 319 320 320 321 322 322 322 321 321 322 322 321 320 321 322 321 322 322 323 327 327 326 326 326 328 329 329 330 330 330 329 329 328 328 330 325 318 318 319 317 316 316 318 318 318 320 319 317 318 317 316 316 317 319 320 321 322 322
304 304 304 306 307 307 307 307 308 308 308 308 308 310 311 311 312 312 311 313 313 313 313 313 313 312 313 314 314 316 319 320 321 321 322 322 322 321 321 321 321 321 320 321 322 321 321 324 324 326 326 325 325 325 326 326 327 328 328 329 329 329 328 327 329 327 319 319 321 318 317 317 317 317 316 317 318 317 316 316 316 316 316 317 319 320 320 321
305 304 304 306 306 306 307 307 308 309 308 308 308 310 312 311 312 312 311 312 313 313 313 312 312 312 314 316 315 315 318 320 321 322 322 322 322 322 321 321 321 321 321 321 322 322 322 325 324 324 324 324 324 324 325 326 326 326 327 327 327 329 329 326 327 327 320 321 324 320 318 318 317 318 316 315 317 317 316 316 316 316 316 317 318 319 320 320
304 304 305 306 306 307 307 307 308 309 309 309 308 310 311 310 311 311 311 312 313 312 313 313 312 312 313 315 315 316 318 320 320 321 322 322 322 322 321 320 321 321 321 321 323 323 323 324 323 322 323 323 324 324 324 325 326 326 326 327 327 327 328 326 324 325 321 321 326 323 319 318 318 318 317 315 315 317 318 318 318 319 317 316 317 318 320 320
304 304 305 306 306 307 308 307 308 309 310 309 308 309 310 310 311 311 311 313 312 312 312 313 312 312 312 313 315 315 316 317 319 320 322 322 321 321 321 321 321 321 321 322 324 325 325 324 322 322 322 323 324 324 324 325 325 327 327 328 328 326 328 328 323 321 320 321 326 326 321 320 319 319 318 315 314 316 318 319 319 320 319 319 318 318 319 319
304 304 305 306 306 307 308 307 308 310 310 309 309 308 310 311 311 311 311 311 311 311 311 312 312 312 311 311 313 314 314 315 317 319 321 321 321 321 321 321 321 322 322 322 323 324 325 323 321 322 323 323 324 325 325 326 326 326 327 328 327 326 326 328 324 320 319 319 321 324 324 322 320 320 320 317 315 315 316 316 317 318 319 320 319 319 319 319
305 305 306 306 306 308 308 307 309 310 309 309 309 309 310 310 311 312 311 310 310 309 310 311 311 312 311 311 312 312 313 313 315 318 319 319 320 321 321 321 322 322 322 322 323 324 324 322 321 322 323 323 324 325 325 326 327 326 327 327 326 326 326 326 322 319 321 321 321 323 327 328 326 323 321 319 318 317 315 315 315 316 317 318 318 318 318 319
306 306 306 306 307 307 308 309 310 309 309 309 309 310 310 310 311 311 310 310 310 309 309 310 311 312 311 311 312 311 312 312 313 315 316 316 317 319 321 322 321 322 321 321 322 323 323 322 322 322 322 323 323 325 325 325 327 327 326 326 326 327 328 327 323 320 324 325 322 323 327 330 331 327 323 321 320 319 317 316 315 316 317 318 318 318 319 319
306 306 306 307 307 307 308 310 309 309 310 309 309 310 311 311 311 310 309 310 311 309 309 309 310 311 311 312 311 311 313 313 312 313 313 314 314 314 317 321 322 322 321 321 323 324 323 322 323 322 322 323 324 324 324 325 327 328 327 326 327 327 328 328 323 321 325 324 321 321 323 326 327 326 326 325 322 321 319 319 317 316 317 318 318 318 320 320
306 306 307 307 307 307 308 309 309 309 309 309 309 310 310 311 310 309 309 311 310 309 309 309 310 310 311 312 311 311 313 313 313 314 312 313 313 312 314 317 321 322 321 322 324 324 323 323 323 323 323 323 323 323 323 324 326 328 329 328 328 327 327 328 326 323 324 325 323 321 320 324 326 326 327 326 326 324 321 320 319 317 318 319 319 318 319 320
306 306 307 307 307 307 308 309 309 309 308 308 309 310 310 310 308 307 309 311 310 309 309 309 310 310 310 311 311 310 311 311 314 315 313 312 313 313 315 315 317 322 321 321 323 324 323 323 322 322 323 323 323 323 323 324 325 326 329 329 329 329 328 329 328 326 324 325 326 324 320 323 328 328 325 324 326 325 323 322 320 319 319 320 319 319 319 320
306 306 307 307 308 309 309 309 309 308 308 308 309 310 310 308 307 308 309 310 311 309 309 310 310 310 310 311 310 310 310 310 312 313 312 312 312 312 313 313 315 320 322 322 322 323 323 321 321 323 323 322 323 324 323 324 323 324 328 329 329 331 330 330 328 326 325 326 327 326 321 323 328 329 324 324 324 322 322 322 320 319 319 320 320 321 321 321
305 306 307 307 308 309 309 310 309 308 308 309 309 309 308 307 308 309 309 310 311 310 310 310 310 310 311 311 311 310 309 310 311 312 312 312 312 311 312 314 317 320 322 322 322 323 324 323 323 324 322 322 324 325 324 323 323 326 329 330 329 329 329 330 328 326 326 327 327 325 322 322 326 328 325 323 324 324 322 322 323 321 319 319 320 322 322 322
306 307 308 308 308 308 309 310 309 308 308 308 309 308 307 307 309 310 309 309 311 311 311 311 310 311 311 310 311 310 309 310 310 312 313 312 313 313 312 315 319 321 323 324 323 323 324 324 323 324 322 322 324 325 325 324 324 327 328 328 330 329 329 330 329 327 328 328 326 323 323 323 324 327 327 324 323 323 320 320 322 320 318 318 320 322 322 322
306 307 308 307 307 308 309 309 309 309 309 309 308 307 308 309 309 310 308 307 310 311 311 311 310 310 310 310 311 310 309 310 310 311 311 310 312 312 311 311 314 315 318 322 324 324 324 324 323 324 323 322 323 325 326 326 325 327 327 329 330 329 331 332 330 329 330 329 324 320 323 326 325 326 329 326 322 320 318 318 320 319 318 319 319 320 321 321
306 307 308 308 307 308 308 308 309 309 309 309 308 308 309 310 309 309 308 306 308 310 310 311 311 310 310 310 311 310 309 310 310 310 311 309 310 311 311 311 310 309 312 318 323 324 325 326 324 324 324 323 323 324 325 326 326 327 327 328 328 328 332 332 330 331 330 326 321 318 324 330 329 325 322 319 317 316 316 318 320 319 319 320 320 320 320 320
306 307 308 308 307 307 307 308 308 309 309 308 308 308 310 310 309 308 308 307 309 311 311 311 311 311 311 310 311 310 310 310 309 309 310 309 310 311 312 312 310 309 311 317 323 323 324 327 325 323 323 323 323 323 322 324 326 327 327 328 327 331 335 331 328 330 329 325 322 320 324 327 325 322 318 315 316 315 314 316 317 317 318 319 320 320 320 319
307 307 307 307 307 307 307 308 308 308 309 308 308 309 309 310 309 308 307 308 311 311 311 312 311 312 312 311 311 310 310 311 310 309 310 309 310 311 312 312 311 311 312 315 321 322 323 325 324 323 323 322 323 323 322 324 326 326 327 328 327 329 333 330 325 324 325 329 326 322 324 324 322 323 320 320 321 318 316 316 313 314 317 317 318 320 319 319
307 307 307 307 308 308 307 308 308 308 308 308 309 309 308 308 308 308 307 309 311 310 311 313 312 312 313 311 311 311 311 311 310 310 310 309 311 312 311 311 311 311 312 312 316 320 323 325 322 322 325 323 321 322 322 322 324 326 327 327 324 324 326 328 327 324 324 329 328 324 324 323 323 326 323 321 323 321 319 318 314 313 315 316 318 319 320 319
307 307 307 307 308 308 307 307 308 308 308 308 309 309 307 306 306 307 308 308 309 310 312 313 312 311 312 312 311 311 311 311 310 310 311 310 312 312 311 311 311 310 312 312 313 316 321 324 321 320 323 322 320 324 325 323 322 323 324 323 324 326 324 324 327 327 326 329 330 326 323 322 323 324 322 321 323 322 320 320 318 315 313 313 317 319 319 320
307 306 305 306 307 307 307 307 307 307 307 308 309 308 307 306 306 307 308 308 310 311 312 312 312 311 311 311 311 310 310 311 310 310 312 311 312 312 311 312 313 311 312 313 313 314 316 321 322 319 320 321 322 325 327 325 321 321 323 323 325 328 325 324 328 330 329 330 331 328 324 325 323 319 320 322 322 321 320 320 321 317 312 312 315 318 319 319
306 304 303 305 307 307 307 307 306 306 306 307 308 307 306 306 307 307 308 309 309 310 312 312 310 311 311 311 310 310 310 311 310 310 312 311 312 312 311 312 314 313 313 313 313 314 315 320 323 318 316 321 326 325 326 327 323 322 325 325 326 325 324 324 326 327 328 329 330 329 327 329 327 319 318 320 320 320 319 319 320 315 312 315 317 318 319 318
305 303 302 304 306 307 307 306 305 304 305 305 306 306 304 305 307 306 306 308 308 308 310 311 311 310 311 311 311 311 310 310 310 311 312 311 312 313 312 312 313 313 315 314 313 313 314 317 320 318 317 323 325 321 321 324 325 324 325 326 326 326 324 326 326 325 326 326 329 329 327 332 332 320 316 318 319 320 318 318 318 314 313 317 317 318 318 317
304 303 303 303 305 307 306 305 303 303 304 304 304 304 304 306 308 306 305 307 307 306 307 310 311 311 311 310 310 311 310 310 310 311 311 311 311 313 312 312 312 313 315 316 313 312 312 314 318 318 318 320 319 315 314 318 321 323 324 325 326 326 325 327 327 326 325 325 327 325 324 332 332 319 316 318 317 317 315 314 314 313 314 317 317 318 318 317
301 302 303 303 304 305 305 304 303 303 303 303 303 303 303 306 307 305 305 307 306 306 307 309 310 309 309 309 309 310 311 311 310 311 311 311 311 312 312 312 312 313 315 316 314 312 312 313 317 319 318 316 316 315 314 315 317 321 323 323 324 325 324 326 327 325 325 325 326 325 324 333 335 323 319 317 312 312 313 313 313 312 314 317 318 318 319 318
301 301 302 303 303 303 303 303 304 303 302 302 303 303 303 304 305 305 306 307 307 308 308 307 307 307 308 308 309 309 310 311 311 310 311 312 312 311 311 312 313 314 315 315 314 313 313 314 316 319 321 319 318 318 317 315 316 320 323 322 323 324 323 325 326 324 325 325 326 327 326 330 333 326 317 312 311 312 312 312 313 312 314 317 318 318 318 317
301 301 301 302 302 302 302 302 303 303 303 303 303 304 303 303 303 304 305 305 305 307 308 306 305 307 308 307 307 307 307 309 311 310 309 310 311 309 308 310 313 314 314 312 312 313 313 314 316 319 323 323 322 321 319 317 316 317 320 321 322 324 323 324 324 323 326 326 324 326 327 324 321 318 313 311 313 314 311 311 312 313 314 316 316 317 316 315
301 301 300 300 300 301 301 300 302 303 303 303 303 303 304 304 302 302 303 304 303 305 306 305 305 307 307 306 306 306 306 307 309 310 309 309 310 309 307 308 310 312 314 312 311 312 312 313 315 318 319 319 318 316 315 316 317 317 319 321 322 323 323 323 324 324 325 326 323 324 325 321 316 314 314 314 313 315 314 311 309 311 314 315 315 315 314 314
302 301 301 301 301 301 301 300 301 303 302 302 303 303 304 304 303 303 303 303 302 303 305 305 306 310 309 307 307 306 306 306 307 309 309 308 309 308 306 307 309 310 313 313 312 313 313 313 314 315 316 315 313 312 312 315 317 317 318 320 321 323 323 323 324 324 324 325 324 323 323 322 318 315 316 315 314 315 315 310 309 311 314 314 314 314 313 313
301 300 300 301 302 302 302 301 301 302 302 302 302 303 303 303 304 304 302 302 301 302 304 304 305 309 310 309 309 307 306 307 306 307 308 308 308 308 308 310 310 310 312 313 312 313 315 315 314 315 315 314 313 312 313 315 317 316 317 319 321 322 323 323 323 323 323 324 324 322 322 322 320 318 318 317 314 313 312 310 310 311 312 313 313 312 312 313
299 300 300 300 301 301 301 301 301 301 302 303 303 302 302 302 303 302 302 303 302 302 304 304 304 307 309 309 309 307 307 308 307 307 308 308 308 309 310 311 309 307 308 311 312 313 315 315 314 314 315 315 313 312 313 314 316 316 317 319 320 321 322 322 322 322 322 323 323 322 322 322 320 321 322 318 312 308 308 309 309 310 311 312 312 312 312 312
300 301 300 299 300 300 299 300 301 301 301 302 303 302 302 302 303 302 302 304 304 302 302 304 305 306 308 309 309 309 309 310 310 310 309 309 309 309 310 310 308 306 306 309 311 312 314 316 314 313 315 315 314 313 313 313 315 316 316 317 318 319 320 321 322 322 322 322 322 322 323 322 319 321 321 315 310 309 309 309 309 310 311 311 312 312 313 313
300 301 300 300 300 300 299 300 300 301 302 302 302 302 301 302 303 303 301 302 304 303 302 304 306 305 305 307 308 309 309 309 311 311 309 308 309 309 310 308 308 307 307 307 308 309 312 314 313 313 315 315 314 314 313 313 314 315 315 316 316 317 318 320 320 321 321 322 322 322 322 321 319 320 320 315 313 312 310 309 309 311 311 310 311 312 313 314
300 300 300 300 300 300 300 300 300 301 302 301 301 302 301 302 303 303 301 300 300 301 301 303 305 303 302 303 306 307 306 306 308 308 307 306 306 305 306 306 306 307 308 307 307 307 309 312 312 313 314 314 314 314 313 313 315 317 316 316 316 316 317 319 320 320 320 321 322 322 321 320 320 320 320 319 319 316 312 311 312 313 312 311 312 313 314 314
Wind_Speed
35 35 35 36 35 34 34 35 34 33 32 31 30 29 28 27 25 25 25 25 24 24 24 24 24 24 25 24 24 23 25 27 28 30 33 35 33 30 28 27 24 22 21 22 21 17 15 14 13 11 11 10 9 9 9 9 9 6 3 2 4 4 4 4 4 4 3 3 5 10 13 10 6 8 13 11 12 15 14 11 11 13 10 9 10 8 16 25
37 35 35 36 35 34 34 34 34 34 33 32 31 31 29 27 27 25 24 25 25 24 24 24 24 24 24 24 24 23 24 28 29 33 38 36 32 30 29 26 25 24 22 22 20 17 18 17 15 14 13 11 8 8 7 9 10 6 3 2 6 5 4 5 5 4 1 5 8 13 16 12 10 12 16 9 7 14 11 7 10 12 12 12 11 11 19 26
38 36 36 35 35 35 34 34 34 33 34 33 32 32 30 28 27 26 24 25 25 25 24 24 23 23 23 24 23 21 23 25 30 39 40 35 33 31 30 28 27 26 24 23 20 19 18 16 16 15 14 12 10 10 8 8 8 7 4 3 6 5 4 8 10 11 9 9 9 10 13 11 12 15 16 10 8 10 9 10 11 13 16 15 14 17 22 26
38 37 37 35 35 35 34 34 33 33 33 33 33 32 31 29 27 26 25 25 26 25 24 24 23 23 22 24 23 22 22 21 31 44 42 36 35 32 30 29 28 28 27 24 20 19 19 17 17 17 15 12 12 11 9 9 8 6 7 5 5 5 4 10 14 13 11 10 8 8 9 7 11 14 14 14 9 3 11 20 20 19 21 19 20 22 24 26
39 38 38 36 35 35 34 34 34 33 32 32 33 32 32 30 28 27 26 26 26 25 25 23 23 23 21 23 24 24 22 11 20 37 41 40 37 34 32 30 29 29 28 27 23 21 21 18 18 18 14 10 9 7 7 15 12 5 9 12 8 6 3 9 14 10 6 5 6 8 6 5 9 12 15 18 11 9 19 26 25 22 22 21 23 25 26 27
40 39 39 37 36 35 34 34 34 33 32 31 32 32 32 30 28 27 26 26 26 25 25 23 23 22 21 22 24 27 26 9 4 13 30 40 38 35 34 30 29 29 28 29 26 24 22 20 18 17 12 7 8 7 7 18 16 5 9 12 13 14 8 9 13 8 5 3 5 6 5 7 9 9 15 20 17 18 21 23 23 21 19 21 23 26 28 28
40 40 40 39 37 35 34 34 34 34 32 30 31 32 32 31 29 27 27 26 26 25 24 24 22 22 21 20 23 30 35 21 4 9 8 27 36 37 35 32 31 30 29 31 30 27 24 21 19 17 11 6 8 9 10 16 16 9 6 7 13 18 17 17 18 14 11 9 7 5 4 8 12 7 10 20 23 21 15 15 20 21 19 21 23 26 28 28
40 40 41 40 37 35 35 34 34 34 32 30 29 30 30 31 29 27 28 27 26 25 24 24 22 23 21 21 26 30 38 36 14 7 4 10 26 36 36 35 34 32 32 33 34 32 28 24 21 17 10 7 8 9 13 11 9 9 8 7 9 14 18 21 23 21 16 13 12 8 5 9 14 8 6 17 23 20 14 11 16 22 23 23 25 26 27 28
40 40 40 40 38 36 36 34 34 33 32 31 29 29 29 30 29 28 28 27 27 25 23 23 22 23 22 24 28 24 32 43 32 18 13 8 16 34 39 39 37 35 34 34 36 34 30 27 24 18 9 8 9 9 13 9 4 10 15 12 8 11 15 17 19 20 17 14 12 9 7 9 12 7 8 19 21 16 15 11 13 22 26 26 27 27 27 28
40 41 40 40 39 37 36 35 34 34 33 31 30 29 29 29 29 28 28 28 27 25 23 21 21 22 23 27 27 18 25 36 34 33 27 13 17 36 41 42 39 37 36 34 37 38 33 29 26 20 10 7 8 7 11 9 5 11 19 19 15 17 17 16 15 16 15 13 13 10 8 11 9 5 8 17 18 16 17 15 13 19 26 29 29 29 28 28
41 41 40 40 39 38 37 35 35 34 33 31 30 30 28 28 29 28 28 28 27 25 23 20 20 22 23 26 25 17 19 25 27 31 29 15 19 39 43 42 40 38 38 36 38 41 37 30 27 22 10 6 5 3 7 9 9 13 16 13 15 20 19 16 13 15 13 8 14 11 7 10 7 7 11 14 15 15 18 18 16 17 22 28 31 31 29 29
41 41 40 40 39 38 36 35 36 35 33 31 30 30 28 28 29 28 27 27 27 25 23 21 20 22 23 25 30 27 20 20 22 24 28 20 16 33 42 40 38 38 37 37 38 40 38 32 29 23 11 8 5 1 4 7 10 16 14 6 8 11 12 15 14 15 13 6 12 9 4 7 7 13 17 15 16 15 16 18 19 20 21 25 30 33 32 30
41 41 41 40 39 38 36 35 35 35 34 32 31 30 29 28 28 28 27 27 27 26 23 21 21 22 20 22 30 33 27 23 20 16 25 27 18 24 37 38 36 37 37 37 36 37 40 34 30 24 14 10 6 4 3 4 6 12 10 4 5 6 6 14 15 12 12 8 12 10 3 8 10 18 18 17 21 17 16 19 20 22 22 24 29 33 34 32
41 42 41 40 39 38 36 35 34 34 34 33 31 30 29 28 28 28 27 27 28 26 24 21 21 21 20 23 25 27 28 25 21 19 24 30 26 22 29 34 34 36 36 35 34 34 37 34 29 22 15 12 7 4 2 6 4 4 5 5 4 5 4 9 13 11 9 9 15 13 5 10 10 14 15 18 23 22 21 21 22 24 25 27 29 32 35 34
41 42 41 40 39 38 37 36 34 33 33 33 32 30 29 28 27 28 28 27 28 26 24 21 22 20 15 21 24 23 26 24 21 24 27 30 33 27 26 29 31 33 34 32 31 31 32 32 29 19 11 13 9 2 2 2 2 1 5 6 5 6 3 4 11 15 11 7 13 12 4 9 11 12 16 19 23 26 27 25 25 27 28 30 31 33 35 35
41 42 41 40 39 37 37 36 34 33 32 32 31 30 28 26 27 28 28 27 27 24 24 22 22 19 8 10 20 23 26 25 21 23 28 31 34 33 28 27 29 31 33 31 29 28 27 27 25 17 10 9 8 3 1 1 3 3 6 6 5 7 4 3 6 15 17 7 7 9 4 6 7 8 13 18 26 29 27 28 28 29 31 32 33 34 35 35
41 42 41 40 38 37 36 35 34 32 32 32 31 29 27 25 26 28 27 27 26 25 25 23 22 18 9 8 14 20 26 27 23 23 29 32 33 34 31 30 31 32 32 31 28 27 26 24 18 11 7 5 5 5 3 6 9 7 6 5 4 5 5 3 2 9 15 7 6 9 7 10 9 4 4 9 19 25 25 26 28 29 31 33 35 36 36 36
40 41 41 40 38 37 36 34 33 32 31 31 30 28 26 25 25 27 27 27 26 24 21 20 21 12 11 19 17 17 25 26 24 26 31 33 33 36 35 34 33 31 28 25 24 26 23 18 12 6 4 5 6 9 10 11 9 9 7 5 4 2 6 8 3 6 11 8 9 10 9 15 14 10 9 8 9 16 24 27 26 27 30 33 36 38 38 38
40 41 41 40 38 37 35 34 33 32 31 30 29 27 25 25 25 26 29 27 23 17 12 20 27 12 5 20 23 17 19 22 24 30 35 37 35 35 35 34 36 34 25 15 15 23 18 9 8 7 8 11 13 16 17 8 4 7 8 5 6 5 6 9 6 6 11 9 9 11 11 14 15 12 15 19 13 12 20 24 24 26 30 34 37 39 40 40
41 41 40 39 38 36 35 34 33 32 32 31 32 29 25 24 16 15 24 28 27 19 12 27 38 17 3 8 22 19 16 19 25 33 38 39 38 35 34 32 32 29 19 11 10 18 18 9 8 13 15 19 19 18 17 7 3 4 7 6 9 9 8 9 7 6 9 9 9 11 11 15 17 12 15 24 19 11 14 18 22 26 29 33 36 38 40 41
40 40 39 39 38 37 35 34 33 33 33 33 36 32 28 30 16 11 25 26 29 26 12 24 37 20 3 11 23 21 17 19 25 34 36 39 39 31 27 28 21 13 14 17 13 13 16 11 13 19 19 17 17 15 14 11 5 3 6 7 8 10 9 7 8 7 8 8 7 9 11 16 17 13 16 20 13 13 19 19 22 26 27 30 33 36 39 40
40 39 40 39 37 37 35 35 34 33 34 34 39 36 31 37 26 18 25 15 17 25 11 16 31 22 8 14 23 23 19 16 20 30 33 38 40 28 22 22 14 9 13 15 11 8 10 11 18 22 15 11 12 14 14 14 11 5 5 6 7 8 6 5 7 6 6 6 6 8 10 14 17 15 16 15 11 17 27 26 27 28 27 30 33 36 39 39
40 39 39 38 37 37 34 35 34 33 36 37 42 41 32 36 26 16 22 11 7 21 14 14 28 29 18 13 18 21 18 14 15 26 34 37 38 33 26 19 13 13 13 12 10 9 8 14 23 18 11 11 11 13 14 12 10 8 6 6 7 7 6 7 6 4 5 5 4 6 8 9 13 13 12 15 17 21 28 30 30 30 29 32 35 37 40 40
39 39 39 38 37 36 34 35 34 34 39 39 42 42 33 32 24 15 20 8 0 13 17 16 22 28 27 19 16 17 15 14 17 25 34 35 35 32 24 19 17 14 12 17 17 15 12 14 17 13 12 16 14 12 14 10 9 11 10 8 6 6 7 8 4 2 3 4 3 3 5 8 10 12 11 12 15 19 26 27 27 31 33 35 37 38 40 41
39 38 38 38 37 36 34 34 36 37 38 39 41 39 32 30 25 21 17 5 3 7 13 15 14 18 26 22 18 17 13 15 22 29 32 30 27 23 19 20 17 12 15 21 18 14 14 12 18 16 16 18 15 12 14 12 8 10 13 12 8 5 4 4 2 2 2 7 4 5 5 8 6 12 14 10 8 13 19 20 23 31 34 36 38 39 41 42
38 37 37 38 37 36 35 35 37 37 37 39 41 37 32 27 27 27 16 3 2 4 7 13 12 12 20 19 17 16 8 12 25 32 31 26 19 12 13 16 12 11 18 18 11 8 8 13 20 20 17 15 14 12 14 13 9 9 13 13 9 6 5 3 3 5 5 7 3 7 8 8 3 9 12 11 11 13 15 14 20 30 33 37 40 41 43 43
37 36 36 37 38 39 38 36 38 39 39 39 39 37 33 28 30 28 13 1 3 6 8 11 12 12 17 19 22 18 3 8 21 27 30 30 21 9 5 9 10 12 15 11 7 6 9 15 17 19 18 14 14 14 15 16 11 9 8 10 11 11 10 5 3 6 5 2 2 6 8 8 8 8 7 8 10 12 14 11 14 25 34 39 42 42 44 46
36 35 35 37 38 41 41 37 39 42 40 37 38 40 36 33 32 21 6 2 4 7 7 9 13 13 14 19 28 21 4 8 12 15 25 31 25 12 3 6 10 13 17 14 11 11 15 20 19 21 19 13 15 16 16 18 12 6 7 9 10 9 5 2 3 5 3 2 5 7 4 5 10 6 1 4 7 10 14 13 12 21 35 42 42 41 43 46
37 35 35 37 37 40 39 36 39 41 37 36 38 39 36 33 25 11 1 3 4 4 4 11 14 13 14 17 24 25 12 6 6 6 17 21 21 15 6 6 9 10 18 18 14 11 12 22 24 20 15 13 17 15 15 18 12 5 11 8 4 5 4 2 3 3 1 1 10 10 7 7 10 5 4 4 9 12 11 10 13 23 37 41 38 38 40 43
37 35 35 37 38 41 38 34 36 38 36 37 39 39 36 28 15 5 3 4 3 2 6 13 13 13 18 13 11 18 12 6 7 10 12 11 11 12 10 12 11 8 12 15 14 6 3 17 20 13 12 13 12 12 16 20 12 9 10 7 7 5 3 3 3 2 2 6 14 13 10 9 10 6 9 7 7 10 10 7 11 21 33 37 36 37 39 40
36 36 36 37 40 42 39 34 36 38 38 38 40 40 32 17 4 3 5 3 3 3 6 9 9 13 19 13 7 11 9 5 6 7 7 6 8 5 4 10 10 6 7 10 12 5 2 10 10 7 15 13 11 10 12 13 13 10 6 6 6 1 2 2 2 2 4 8 11 12 10 8 12 9 8 9 6 9 12 10 12 17 25 32 34 38 41 41
35 36 36 38 39 39 39 36 36 38 38 38 41 36 21 6 3 4 3 2 3 5 6 8 8 12 16 13 8 10 9 5 5 6 6 4 4 5 3 5 5 3 5 9 11 7 4 7 8 11 18 19 15 9 5 7 9 8 6 8 7 3 2 3 3 2 6 9 5 9 13 9 15 11 5 8 7 8 12 14 18 20 22 28 32 36 38 38
35 36 36 38 37 38 39 35 36 38 37 39 38 26 9 2 6 4 2 3 2 2 6 9 9 11 13 10 7 8 7 4 6 8 7 3 2 7 7 7 6 2 3 9 11 10 6 7 12 12 12 19 19 11 7 7 9 9 10 11 10 6 5 8 7 3 7 8 2 5 11 9 15 10 4 8 9 12 17 21 26 24 22 26 27 28 31 33
36 36 37 38 37 38 39 36 37 38 39 41 32 15 6 5 4 4 4 4 2 2 6 9 11 12 12 9 6 8 5 3 7 7 6 5 3 8 9 9 9 2 1 6 8 11 10 8 14 14 11 19 21 15 14 12 11 13 10 9 11 7 6 8 8 6 5 3 1 4 5 7 10 5 3 7 9 13 18 23 28 27 26 27 25 23 26 28
36 37 38 37 37 39 38 37 39 40 43 39 19 6 9 6 2 4 5 4 2 3 6 9 12 11 10 6 5 8 4 2 7 6 5 7 5 9 9 7 9 6 2 5 4 9 13 7 11 15 14 21 21 16 18 14 8 9 5 6 10 7 4 2 2 4 3 2 2 3 4 5 5 6 8 7 8 11 14 18 23 25 25 25 25 25 24 22
37 39 39 37 38 39 38 38 38 41 44 30 8 6 8 3 2 4 5 5 4 6 9 9 9 8 7 4 4 9 5 2 8 6 4 7 6 7 7 3 8 8 4 4 2 6 11 6 10 15 11 19 23 16 17 17 9 6 7 8 6 3 6 4 1 1 4 2 3 4 6 6 4 10 12 9 8 8 10 13 18 21 21 20 24 27 24 21
39 39 36 35 37 38 38 38 39 44 42 22 6 7 3 0 4 5 5 6 7 10 10 7 6 6 7 5 4 9 6 2 6 5 4 5 5 6 7 3 8 11 7 5 3 4 5 4 9 16 13 20 28 21 16 17 12 7 10 10 4 3 2 3 2 1 3 3 2 5 11 7 3 7 7 7 12 12 9 10 13 17 18 20 26 29 26 24
40 37 31 30 34 36 37 37 40 45 33 13 6 5 1 1 3 4 8 8 8 10 7 4 5 5 6 6 5 8 8 4 5 6 5 5 5 9 12 6 8 13 11 9 3 6 3 2 3 10 13 13 17 17 12 12 6 3 7 10 7 2 3 4 4 3 4 5 3 4 8 6 7 9 4 4 12 14 11 9 10 12 15 22 30 30 28 28
41 31 20 25 34 34 34 36 41 39 18 5 7 4 1 2 2 5 13 11 6 6 6 3 4 3 4 6 4 6 8 8 8 6 5 4 4 8 14 9 7 13 14 12 5 6 4 4 3 4 6 7 8 11 12 10 2 3 3 7 4 2 4 5 3 2 4 5 4 3 4 4 9 10 7 8 11 12 11 8 8 11 15 23 27 29 31 32
38 19 8 24 35 31 34 37 35 24 7 2 5 3 2 4 2 5 14 14 4 2 4 3 3 3 4 4 4 6 7 7 8 6 4 5 4 4 10 11 7 11 14 12 5 5 5 3 3 0 2 8 9 9 14 17 11 5 6 8 6 3 2 3 3 2 3 4 4 5 6 7 6 6 12 16 14 12 13 10 9 10 15 22 26 28 31 31
30 10 5 26 34 32 37 31 16 7 2 2 2 2 4 4 3 4 9 12 6 3 4 5 4 4 3 3 4 5 6 5 6 5 3 5 6 3 7 12 10 10 11 8 3 4 3 3 3 3 4 8 5 3 8 14 16 15 11 12 13 9 7 7 8 4 3 4 5 5 8 9 5 5 12 16 16 15 15 11 9 12 19 24 26 28 29 28
21 5 8 25 31 35 33 14 2 3 3 3 3 4 4 3 3 3 4 8 7 3 5 5 3 3 3 2 2 3 5 4 5 6 4 6 8 4 6 13 12 10 8 5 3 4 1 3 2 4 4 4 1 1 1 2 8 10 7 11 14 11 10 11 11 7 5 4 2 1 7 8 4 6 9 11 12 14 13 10 9 13 20 25 27 29 29 28
14 9 16 26 29 33 23 4 2 4 1 3 6 4 2 2 3 2 2 4 3 2 4 3 2 2 2 2 2 2 3 3 5 6 4 4 5 4 7 17 13 7 6 3 2 3 2 1 2 1 0 2 3 1 3 4 3 4 4 6 11 12 12 9 6 6 6 7 5 3 6 8 5 3 5 6 8 10 11 13 13 13 15 19 22 25 26 26
18 15 17 22 26 27 14 1 3 6 3 5 6 4 3 4 3 2 2 1 2 3 3 2 2 2 2 3 3 3 3 1 2 4 2 3 2 4 6 19 18 8 5 6 6 6 3 1 1 1 2 1 2 2 0 1 3 3 5 8 11 15 13 4 2 3 6 11 11 8 9 9 5 3 2 2 4 7 10 14 17 15 14 18 21 22 24 23
17 12 11 14 20 18 7 1 3 6 7 8 6 4 4 5 3 4 4 1 0 4 4 2 3 5 4 3 4 2 2 1 1 1 1 1 2 4 3 7 13 10 9 13 16 11 5 2 1 2 3 4 5 4 2 2 3 2 4 9 13 18 17 9 5 6 8 11 11 10 10 7 4 4 5 3 2 5 8 12 15 16 16 19 22 23 23 22
8 4 6 8 9 7 4 3 4 5 8 9 7 4 4 4 2 3 5 1 1 4 5 3 5 7 5 4 4 2 1 1 1 1 2 1 2 2 6 8 6 6 8 18 22 12 3 3 5 5 5 2 1 3 2 2 5 6 10 14 17 21 23 16 10 10 11 9 9 13 13 7 3 4 5 5 5 7 7 8 11 14 14 16 19 19 19 19
4 2 4 4 4 4 4 3 3 3 4 5 4 3 6 8 4 1 2 1 1 3 4 3 3 5 3 4 5 3 2 1 2 1 2 2 2 3 6 7 6 6 6 17 20 11 2 4 9 10 9 4 2 4 4 3 8 9 14 19 20 21 23 19 14 15 14 9 9 15 17 13 9 7 7 7 6 6 6 7 11 14 15 15 16 16 16 18
3 4 5 4 4 2 3 5 6 5 4 3 2 2 7 9 6 3 2 1 1 2 3 3 2 4 7 6 5 4 4 3 1 1 1 1 2 2 4 3 3 4 3 12 14 8 2 4 8 10 12 9 5 2 5 4 9 9 11 16 17 19 23 22 21 22 18 13 14 17 19 18 11 6 7 8 8 8 10 13 15 14 14 15 15 15 17 18
6 8 5 4 4 3 7 11 12 9 6 4 2 2 6 8 5 3 2 2 2 2 2 4 2 3 6 5 5 4 5 3 1 3 1 1 2 1 2 1 4 9 4 5 7 4 3 4 6 9 10 10 7 4 2 3 6 8 11 14 12 13 18 20 22 22 14 10 13 10 12 14 9 7 9 12 14 15 12 11 13 14 15 16 16 17 19 21
9 9 6 6 6 6 11 12 11 9 5 4 3 1 4 7 6 3 1 4 4 1 2 5 5 4 5 5 6 4 6 6 4 4 4 3 2 2 1 1 1 7 7 2 2 2 3 4 6 7 7 10 7 7 5 4 4 7 11 14 13 12 12 13 15 14 7 9 14 8 7 11 7 9 10 10 12 13 8 7 12 16 17 17 17 20 23 25
12 12 15 14 6 4 8 6 5 8 5 3 4 3 5 6 7 5 1 3 7 6 5 7 6 5 4 3 4 4 7 9 7 8 12 8 4 5 3 2 2 2 4 3 2 3 4 2 4 6 5 8 9 10 9 6 3 5 9 13 15 13 11 10 10 11 11 14 16 11 10 11 5 7 8 7 7 8 6 9 13 15 16 17 18 22 24 27
17 16 19 17 6 2 5 4 3 6 4 3 4 3 5 6 6 6 3 1 4 8 10 10 7 5 3 3 5 9 12 15 12 11 15 12 8 10 9 8 8 4 2 2 1 1 2 2 1 5 6 7 9 12 9 5 3 7 10 13 16 16 14 12 12 13 12 11 12 11 11 8 5 9 10 8 7 7 9 14 18 17 18 20 20 22 24 27
Wind_Direction
237 234 232 233 232 233 233 231 230 230 230 232 233 233 231 229 229 229 226 224 222 222 224 225 225 225 226 224 225 228 227 225 228 229 229 232 226 217 220 222 220 222 220 213 211 211 207 206 211 213 216 216 221 228 226 216 196 178 142 166 221 211 217 197 189 200 176 251 252 214 207 184 168 169 165 165 164 155 159 172 162 178 187 172 185 202 190 179
237 233 231 231 231 231 232 232 229 228 229 230 232 233 230 228 228 227 226 224 222 220 222 224 224 224 225 224 223 225 226 226 231 235 233 232 227 218 216 214 211 213 213 210 206 201 202 204 203 206 209 207 214 215 209 206 199 199 143 175 220 196 218 231 234 269 291 279 262 220 209 196 185 167 159 158 157 151 147 158 161 172 174 173 186 191 188 181
237 232 230 230 229 229 230 230 229 227 228 229 230 232 231 228 227 227 226 225 222 220 220 222 223 222 222 223 223 221 224 228 235 237 233 231 228 221 217 211 206 207 208 209 203 197 202 206 204 204 207 209 211 207 200 191 200 214 182 210 232 201 245 267 266 276 285 279 269 227 209 203 192 173 166 164 161 167 168 168 169 176 178 180 183 182 184 183
237 232 229 229 227 227 228 228 228 226 226 228 229 232 232 229 225 224 225 226 223 220 218 219 221 221 220 222 225 220 218 229 239 237 232 229 227 221 216 210 204 205 205 205 200 195 198 203 206 207 206 210 210 206 200 190 196 201 193 217 217 176 224 262 266 271 276 266 245 207 192 207 197 182 177 162 147 220 210 194 195 196 191 185 181 180 184 184
237 232 228 227 226 225 226 226 226 225 224 226 228 230 232 230 225 222 224 226 224 221 218 219 219 219 219 219 224 219 206 220 249 241 235 230 225 220 215 208 202 203 201 201 197 192 196 199 203 208 208 210 201 197 209 205 199 191 221 228 215 188 195 260 261 257 264 247 213 182 171 211 197 191 191 172 166 221 216 209 208 209 207 201 192 186 186 188
234 231 226 225 225 223 225 225 225 225 223 224 226 228 230 230 224 220 222 224 224 222 218 218 217 217 218 217 228 220 203 203 316 244 235 231 226 220 213 206 202 201 199 199 197 193 197 197 199 205 205 206 195 190 214 211 204 211 244 234 227 227 224 251 251 248 272 254 200 178 186 202 181 201 208 192 203 219 219 219 213 215 221 215 204 194 192 193
232 229 224 223 223 222 223 224 224 224 223 222 225 226 229 230 225 220 220 222 222 220 218 218 216 217 216 218 228 218 208 211 93 65 227 224 223 219 212 206 201 199 199 199 197 196 198 198 200 202 197 208 202 202 216 211 206 217 254 234 229 232 230 240 243 250 270 269 249 211 198 201 183 198 212 208 223 226 227 229 218 219 220 213 206 202 202 203
229 228 223 221 222 221 220 222 223 224 222 222 223 225 226 228 224 218 218 221 221 219 217 217 216 216 214 214 216 207 211 218 198 79 14 223 215 212 210 206 202 200 200 200 197 193 196 198 201 200 197 212 200 204 214 212 212 218 244 243 229 234 235 242 245 248 255 252 244 225 221 218 203 209 219 220 230 229 226 227 220 218 214 211 210 210 210 209
228 226 222 220 220 219 219 220 221 223 222 221 222 223 223 225 223 217 216 219 219 217 216 215 216 216 213 215 215 211 224 228 221 224 251 268 210 201 206 206 202 202 201 201 197 193 196 197 198 196 195 207 203 211 207 204 222 216 232 243 238 239 241 246 245 239 234 227 220 219 239 233 214 228 251 233 230 226 217 211 215 216 214 214 215 216 215 213
226 226 222 219 219 219 218 217 219 222 221 220 220 221 221 221 221 217 214 216 217 216 213 212 215 215 214 217 217 224 238 235 231 228 230 251 207 193 203 206 202 202 201 200 198 198 198 195 195 193 193 199 203 221 205 198 219 219 230 241 244 244 244 244 238 222 214 215 211 209 232 235 216 213 248 234 226 222 213 208 216 218 218 218 218 219 218 218
224 225 222 219 219 219 217 216 217 220 220 219 218 219 218 218 220 217 213 215 216 214 211 209 213 216 217 219 217 224 239 235 238 235 224 232 209 194 198 204 204 203 202 200 199 200 199 196 194 190 192 199 192 253 237 220 231 240 240 244 247 247 246 239 227 212 203 212 217 210 240 247 228 223 235 226 220 224 218 215 219 219 222 222 221 219 219 221
222 224 222 218 217 218 217 215 215 218 218 217 217 215 215 215 217 216 211 212 214 213 208 207 214 217 217 225 226 225 232 232 237 239 224 220 216 201 198 201 205 206 205 202 201 202 202 199 196 191 186 185 170 2 266 237 241 252 250 256 258 251 248 233 223 211 200 215 212 195 272 256 231 235 235 227 225 230 224 218 217 220 223 223 223 220 219 221
220 222 221 218 216 216 215 214 213 216 216 216 216 213 213 213 214 213 209 210 212 211 207 206 213 218 216 225 233 230 231 231 226 228 223 217 217 207 200 200 203 206 209 208 204 202 202 201 199 197 187 169 161 184 238 311 271 249 239 244 261 258 248 224 222 205 195 218 194 169 259 246 236 242 238 232 228 224 219 215 213 218 222 222 222 222 222 222
218 221 220 217 215 215 214 213 212 214 214 215 214 212 212 212 212 209 206 208 210 208 207 208 211 213 218 227 234 231 229 234 225 215 218 214 209 204 199 201 202 203 206 209 207 203 202 204 203 204 198 186 182 194 277 340 304 248 228 227 219 233 250 213 206 179 182 223 185 168 247 250 249 253 241 234 227 221 217 214 213 217 221 222 221 222 224 224
216 218 218 216 214 213 213 211 211 212 213 213 212 211 210 212 211 207 205 207 208 206 204 206 207 203 218 235 235 232 228 231 223 211 212 210 206 201 195 197 200 202 203 205 206 203 202 204 204 202 193 194 192 144 30 346 317 288 225 224 202 216 262 236 202 180 187 221 184 174 234 259 263 264 251 239 225 222 221 219 217 217 220 222 222 222 224 226
214 216 216 214 211 211 212 210 210 211 212 211 210 210 209 211 209 205 205 205 205 203 201 203 203 199 209 240 232 231 228 226 222 211 210 213 210 204 195 189 193 200 202 202 203 200 198 198 199 197 177 175 186 168 110 302 267 234 225 228 210 212 230 276 224 196 197 189 188 206 230 255 267 271 253 235 223 221 221 223 220 218 220 222 223 223 224 226
212 214 214 212 209 209 209 209 208 208 209 207 207 207 207 208 206 205 204 204 205 200 200 203 196 198 223 236 222 222 220 220 220 211 206 209 211 208 198 185 187 196 199 199 199 193 191 191 190 195 174 155 172 164 182 232 229 221 223 232 224 209 198 204 265 212 204 184 203 227 237 240 247 265 233 212 223 224 222 227 224 220 220 221 224 225 226 227
210 211 212 210 208 207 207 208 206 206 207 203 203 202 203 204 202 205 202 200 199 194 198 196 180 185 236 230 216 211 215 212 209 209 203 200 207 211 203 189 184 186 185 186 190 186 183 183 181 185 170 166 173 175 201 218 212 207 209 219 229 224 206 205 217 204 198 206 217 212 228 243 248 255 240 223 227 226 227 232 230 225 223 222 224 225 227 228
208 209 210 208 206 205 205 205 202 203 202 199 199 198 198 199 199 205 204 196 185 177 186 182 177 177 236 223 211 200 203 198 196 202 199 197 202 206 201 191 181 173 167 164 183 185 174 162 177 188 190 193 192 194 205 199 136 188 197 203 214 221 225 215 225 209 188 208 227 211 223 241 246 248 243 241 239 228 233 236 234 231 227 224 223 224 227 229
206 207 208 207 205 203 203 202 199 199 197 196 194 190 188 186 185 204 201 198 192 182 184 186 188 193 44 187 197 194 185 185 193 194 195 197 193 190 186 179 173 169 167 165 178 184 176 171 196 201 201 199 197 199 208 211 73 144 177 199 213 221 231 214 227 229 183 201 230 216 224 240 243 243 241 242 239 235 238 236 235 233 230 227 223 224 226 229
204 206 206 205 203 201 201 199 197 196 195 196 192 187 186 180 174 192 187 194 202 194 194 193 193 200 103 140 176 185 176 178 192 192 195 195 185 180 174 167 168 173 180 171 156 169 183 198 209 209 208 198 197 199 205 214 203 159 183 204 215 222 231 214 220 224 184 202 232 213 224 243 244 244 244 239 229 233 238 233 235 235 233 232 228 227 228 231
203 204 203 202 201 200 200 198 197 196 194 195 194 193 195 190 190 199 182 176 201 197 194 192 196 201 171 149 166 175 173 174 192 195 194 190 184 180 171 169 178 182 182 170 147 161 190 211 213 209 206 193 197 200 202 210 209 208 196 199 219 217 227 238 228 222 191 206 229 213 224 243 246 244 244 237 213 229 239 236 238 237 234 234 233 232 232 233
202 203 201 201 201 198 197 196 195 195 193 194 196 197 200 194 194 199 180 159 187 194 188 180 194 202 198 182 173 174 176 171 187 196 192 187 186 183 174 176 188 181 177 172 169 181 189 211 211 199 183 191 201 196 199 207 210 217 197 195 221 195 192 230 225 212 206 199 193 209 230 248 252 251 252 240 225 233 243 242 242 241 237 239 239 237 234 233
201 200 198 199 199 196 195 193 193 195 195 196 198 199 199 194 192 181 167 149 28 194 194 186 190 203 205 204 194 187 189 184 189 197 194 188 184 184 181 179 184 185 183 182 183 191 204 209 195 173 176 195 197 189 194 200 208 220 213 204 207 180 198 226 213 163 230 229 145 136 263 260 242 247 256 242 227 233 241 241 242 241 240 244 244 241 240 237
197 197 197 197 196 195 191 189 193 195 194 197 200 199 197 193 190 180 162 116 358 193 201 195 192 208 204 203 206 198 196 202 202 201 201 198 184 178 187 188 186 188 183 185 187 199 212 181 156 173 196 192 190 193 195 196 204 220 221 211 193 177 221 242 211 150 225 254 201 129 254 267 224 230 243 236 219 230 236 234 236 239 239 241 241 240 241 240
194 194 195 195 195 191 188 190 193 191 191 197 199 195 192 190 189 186 171 81 298 184 184 190 192 205 197 193 189 175 183 225 214 208 209 210 199 178 183 186 190 194 182 182 189 207 207 163 161 189 198 179 188 205 197 191 201 223 218 203 188 196 237 263 235 202 212 252 218 155 218 266 265 229 233 226 223 228 229 226 230 236 239 239 239 239 240 240
191 191 192 193 193 189 187 189 189 187 189 194 196 192 187 185 186 184 172 8 239 162 148 177 184 190 194 189 172 158 144 210 208 218 215 210 216 233 227 189 185 189 179 176 197 195 179 174 178 192 189 177 192 206 195 185 201 227 196 172 188 207 223 228 209 224 239 304 269 194 209 264 268 240 222 210 224 237 233 227 228 233 237 239 238 238 238 240
189 188 189 190 191 191 189 187 185 186 190 191 188 188 186 181 179 172 153 244 182 140 143 172 177 180 186 183 177 179 188 151 177 223 217 213 223 233 263 226 209 190 174 179 198 185 177 184 184 185 186 186 198 204 188 181 203 218 135 147 192 195 205 202 161 227 280 19 246 224 179 250 259 245 161 187 214 235 234 227 226 231 235 237 238 236 237 239
187 187 188 189 189 190 191 191 188 186 189 188 183 187 188 179 168 143 114 222 138 118 154 161 166 170 167 168 184 198 206 157 146 173 189 207 222 217 221 253 252 212 185 191 202 189 185 192 187 182 183 191 202 198 177 183 206 177 125 120 121 107 91 74 129 195 329 288 239 221 175 223 255 223 156 208 227 224 225 222 223 230 234 236 237 237 238 239
187 186 187 187 184 186 189 190 189 187 185 182 182 185 179 166 154 131 194 199 116 133 149 153 165 162 157 156 188 204 207 188 159 136 146 166 190 209 240 254 263 240 194 200 214 214 171 189 189 183 187 189 184 174 177 188 179 125 117 106 83 72 59 52 64 108 129 244 239 220 188 212 257 231 179 203 222 201 202 217 224 232 236 237 236 237 238 239
185 185 186 186 183 185 185 182 185 188 184 182 182 177 165 147 138 188 182 147 98 147 141 150 163 154 160 165 174 194 205 206 173 148 147 142 147 166 256 246 241 227 192 195 211 232 96 171 178 182 184 161 130 154 174 170 148 128 129 130 129 102 24 38 10 87 196 241 238 208 173 189 244 241 194 209 208 175 187 206 222 232 235 235 235 236 237 238
183 184 186 186 185 186 184 181 184 185 183 184 179 167 151 131 217 197 170 134 139 181 169 157 162 160 169 174 170 177 183 187 181 185 187 158 164 178 175 213 214 199 198 187 188 200 190 175 165 175 179 157 142 158 150 140 153 154 148 149 163 184 165 205 219 157 217 242 243 178 156 181 241 240 201 222 228 200 199 202 216 228 232 233 236 239 240 239
182 183 185 186 186 186 186 185 182 181 183 180 170 158 145 199 196 168 157 186 187 168 148 148 158 160 163 169 177 175 173 181 175 188 201 151 181 211 207 229 249 300 223 194 187 186 190 191 177 174 174 166 165 166 160 166 170 167 164 169 180 180 177 202 202 186 226 237 255 170 164 204 247 249 210 218 221 218 217 217 223 230 235 238 242 245 246 243
179 180 181 183 185 184 186 185 180 180 179 169 160 156 183 204 172 124 142 194 249 81 120 140 148 152 166 177 175 164 167 200 166 163 186 158 175 221 223 233 235 272 330 219 207 185 186 198 182 176 168 171 179 181 174 164 169 184 182 175 186 187 188 202 195 188 215 225 164 166 181 210 231 252 265 241 243 236 228 230 236 240 240 243 249 251 251 247
174 176 176 179 182 183 186 185 181 180 173 162 154 177 193 191 164 134 153 176 194 93 113 138 144 151 175 182 163 175 192 185 156 153 175 177 191 208 215 225 202 190 213 230 226 188 201 221 179 175 169 171 183 187 169 155 169 192 167 180 204 192 152 162 188 171 138 93 150 176 233 234 226 280 290 268 268 260 240 236 241 243 240 240 245 248 250 248
170 172 172 176 180 183 186 184 182 181 171 159 157 206 186 192 183 159 155 156 153 130 124 139 149 156 175 172 163 189 212 102 148 162 180 197 221 200 193 199 172 177 194 214 271 201 205 222 175 173 171 178 186 181 165 165 168 173 177 198 211 144 123 138 190 119 106 183 210 186 241 262 285 284 272 247 249 260 245 239 242 241 236 235 238 239 240 239
166 166 167 173 179 182 184 183 182 179 171 164 189 195 163 314 180 153 136 135 134 135 136 148 165 167 171 175 175 180 187 142 159 181 169 182 221 191 180 179 166 182 187 173 277 276 206 211 183 177 179 188 187 177 176 183 167 158 191 185 128 67 89 132 187 99 110 219 235 198 225 234 228 257 261 238 243 250 238 226 236 239 232 233 237 235 234 233
161 158 157 166 178 182 181 182 179 173 169 172 183 166 94 199 192 157 138 129 125 138 146 156 164 177 180 178 178 171 177 174 166 189 180 176 214 181 176 184 171 187 190 165 208 305 264 232 221 190 184 182 180 174 184 198 172 131 182 165 135 158 193 173 186 172 171 212 246 225 228 223 213 227 243 233 236 244 242 219 221 229 220 224 233 234 234 235
157 151 143 156 169 176 178 181 176 168 168 190 169 159 187 168 185 165 144 128 105 133 155 164 146 164 178 171 163 161 181 185 166 180 191 186 220 181 176 186 175 183 181 161 182 292 278 208 221 213 178 148 161 180 188 196 195 31 145 159 154 209 200 192 191 158 176 206 231 235 230 229 223 214 210 229 232 237 245 233 219 222 215 217 226 231 234 237
152 142 129 156 163 170 174 175 172 167 172 196 162 157 178 156 143 152 141 132 104 79 155 177 141 135 153 160 159 163 188 190 169 183 208 180 199 197 180 183 167 168 167 152 177 275 294 235 198 148 157 161 173 191 187 186 181 161 167 177 181 178 165 214 222 163 159 197 222 238 243 247 241 191 193 215 227 231 234 234 236 235 223 221 224 227 229 232
146 128 133 158 161 166 167 166 165 165 157 146 137 129 158 158 123 111 117 122 112 47 114 133 132 136 135 140 158 166 179 187 176 186 206 187 205 238 198 186 165 151 155 144 176 234 285 280 191 149 177 182 180 198 195 194 186 179 181 184 185 178 163 192 211 186 169 201 196 218 244 252 247 191 192 203 214 225 226 218 224 237 235 230 227 226 227 228
140 104 145 158 163 164 161 154 121 130 134 144 131 119 140 132 108 96 83 102 100 68 90 97 108 125 116 126 138 149 161 173 184 187 204 212 218 239 206 195 180 156 153 148 163 167 106 317 217 168 186 186 151 120 138 195 182 184 200 190 184 181 175 193 205 185 180 205 155 182 260 267 253 198 197 202 211 225 229 216 209 226 237 238 233 230 231 233
119 101 139 156 168 169 161 128 100 134 72 128 118 85 72 89 96 87 52 89 86 64 89 91 105 110 124 158 132 143 166 167 183 198 222 216 227 267 207 195 186 154 141 151 162 148 117 307 241 192 71 3 347 1 49 41 133 181 239 198 180 187 190 198 204 176 181 201 194 221 249 262 274 229 213 233 237 242 244 238 229 222 228 237 236 231 230 231
105 106 129 152 170 174 166 70 141 136 110 130 112 71 65 64 70 94 80 85 110 113 109 108 123 109 125 137 108 136 177 152 184 222 254 189 225 318 214 195 189 169 159 177 163 149 152 218 244 215 150 117 297 283 331 279 185 185 215 198 189 192 188 171 101 143 199 208 202 216 236 246 276 329 344 284 241 242 246 244 243 237 227 225 225 222 220 221
110 101 110 141 159 166 156 73 151 135 132 136 119 114 105 58 50 100 102 62 162 130 122 124 131 113 112 118 82 88 168 135 144 204 321 272 274 342 346 213 200 191 185 176 158 144 154 179 162 222 208 185 204 224 216 201 188 181 198 193 193 192 185 180 176 179 205 206 195 211 234 249 294 330 326 307 204 210 233 239 240 239 231 220 213 211 212 212
121 97 108 129 138 140 116 111 138 133 143 142 126 132 124 93 82 104 100 73 327 111 105 103 117 101 92 119 108 106 205 319 6 149 154 257 261 276 336 333 284 237 192 171 160 144 126 181 176 208 235 210 197 269 307 120 164 189 189 188 194 194 191 192 193 195 200 195 195 214 222 223 235 243 250 244 212 204 217 226 228 228 223 213 209 208 209 211
123 115 138 138 114 117 108 110 129 117 133 138 128 151 139 128 143 135 80 65 228 127 91 56 104 117 134 137 122 148 169 63 10 121 164 202 233 263 297 324 312 276 204 168 161 145 111 198 188 199 217 201 142 294 292 168 184 202 197 196 197 196 195 195 200 204 197 187 206 217 215 214 216 219 223 225 221 225 232 221 215 215 211 207 211 216 218 219
119 137 151 142 122 137 143 151 154 119 94 80 64 120 138 137 144 140 105 26 17 95 73 51 81 144 158 146 114 138 139 89 323 228 135 204 222 286 286 288 357 338 230 180 168 152 165 210 188 193 214 206 165 291 300 208 197 209 211 212 207 199 199 201 206 208 198 199 218 211 208 216 214 201 222 225 212 211 218 215 209 210 214 215 217 222 225 224
107 125 132 121 101 85 115 135 142 127 112 109 77 115 141 137 139 144 122 77 46 359 72 113 151 154 147 134 97 123 155 134 189 226 204 190 203 254 303 272 28 26 21 203 193 172 188 215 187 188 219 223 185 169 259 226 211 216 217 222 222 214 211 208 214 218 209 224 243 219 207 225 212 177 210 223 214 212 215 217 215 216 220 220 218 219 224 225
135 143 140 114 90 96 113 125 137 131 123 116 110 189 153 136 146 159 113 125 133 351 55 122 154 155 142 138 120 143 203 187 167 199 186 158 191 204 178 215 25 35 32 350 283 260 223 207 172 170 224 237 198 169 185 197 215 225 222 223 224 226 228 223 226 228 219 245 253 234 221 239 211 181 210 215 202 206 217 228 225 223 222 220 219 223 226 228
151 153 143 126 93 100 120 115 128 132 137 145 145 172 162 158 170 158 113 155 150 151 160 156 156 144 120 130 147 188 217 198 181 184 183 183 191 184 171 147 136 61 33 34 8 323 286 249 144 149 217 236 204 190 195 180 186 235 232 224 221 223 230 230 229 222 208 223 236 229 235 246 203 171 213 217 183 187 211 227 229 229 224 218 218 225 231 235
143 140 136 123 93 99 126 103 125 137 143 156 144 152 161 176 180 151 130 246 143 141 160 160 141 114 94 141 209 235 224 210 209 201 196 198 175 160 163 151 144 137 97 105 89 333 311 324 167 169 206 234 207 192 188 153 179 238 227 209 208 213 219 225 235 234 225 225 230 226 234 240 157 158 199 218 213 211 217 223 227 227 224 223 228 234 241 244